STARLINK-34207, 64333

Orbit data source: Space-Track

STARLINK-34207, 64333 is a payload satellite owned by SpaceX/Seattle (US) in LEO that was launched on Tue, 10 Jun 2025 UTC via an FALCON 9 launch vehicle from the Air Force Eastern Test Range (AFETR). Payload-class satellites include a variety of spacecraft equipped with specific instruments for various scientific and technological missions. These include communications satellites like Starlink; space stations such as the ISS; scientific satellites like the Hubble; Earth observation satellites from companies like Planet Labs, Umbra, and HawkEye 360; GPS; miniature CubeSats for education and research; and military/defense satellites.

Loading next visibility...
Identifier
64333, 2025-124S
Orbit
LEO
Last TLE update
10 hours ago
Origin
Manufacturer
SpaceX/Seattle
Mission
Operational spacecraft
Bus & Motor
STARLINK V2MO, Unknown motor
Mass
575 kg wet, ~530 kg dry
Launch date (UTC)
2025-06-10 (3 weeks ago)
Launch vehicle
FALCON 9
Launch site
Air Force Eastern Test Range (AFETR)
Object type
Payload
Rocket body
Debris
Shape & HBR
Unknown
Radar Cross Section
Large (>1 m²)

Expand to show TLE details & history

TLE from 10 hours ago
0 STARLINK-34207
1 64333U 25124S   25182.16668981  .00083938  00000-0  14246-2 0  9996
2 64333  43.0002 107.1528 0001463 281.6684 159.1010 15.50513580  4265
Epoch: 2025-07-01T04:00Z
TLE epoch observation values (Epoch: 2025-07-01T04:00:01.999Z)
Latitude
42.47098°
Longitude
-154.85477°
Altitude
419.138 km
Speed
7.665 km/s
True Right ascension
12h 18m 28s
True Declination
42° 17' 28"
Sunlit
Object was in daylight at epoch
Visualization orbit readout
Latitude
-41.25925°
Longitude
14.54569°
Altitude
426.715 km
Speed
7.656 km/s
Apparent Right ascension
18h 56m 36s
Apparent Declination
-72° 29' 18"
Sunlit
Object is in full shadow
Visualization observer readout
Local Sidereal Time
01:40:24
Azimuth
203.036° SW
Elevation
-40.978°
Doppler factor
1
Orbital elements
Apogee altitude
418.184 km
Perigee altitude
416.196 km
Semi-major axis
6,795.327 km
Eccentricity
0.00015
Inclination
43.0002°
RAAN
107.1528°
Arg. of periapsis
281.6684°
True anomaly
Unknown
Mean anomaly
159.101°
Eccentric anomaly
Unknown
Mean motion
3.87461 °/min
Orbital period
92.91 mins
BSTAR
0.0014246
Loading maneuver chart data...
Loading SW <> Apogee altitude chart data...
Loading historical data...
Loading historical data...
Loading historical data...
Loading historical data...
Loading historical data...
Loading historical data...
Loading historical data...

STARLINK-34207 Visibility forecast

Observer location: undefined°, undefined°

Span
Click to sort rows by Start time (UTC) header in descending order
Start Az.
Max El. time (UTC)
Max El. Az.
Max El.
End time (UTC)
End Az.
5 mins2025-07-01 22:25:21.759Z217.698° SW2025-07-01 22:27:21.759Z173.25° S31.221°2025-07-01 22:30:21.759Z85.512° E
5 mins2025-07-02 00:03:21.759Z275.453° WNW2025-07-02 00:05:21.759Z11° NNE40.215°2025-07-02 00:08:21.759Z69.809° E
4 mins2025-07-02 01:41:21.759Z303.759° NW2025-07-02 01:42:21.759Z336.076° NNW36.016°2025-07-02 01:45:21.759Z80.725° E
5 mins2025-07-02 03:18:21.759Z277.925° WNW2025-07-02 03:20:21.759Z194.689° SSW40.966°2025-07-02 03:23:21.759Z123.57° SE
|